Regional Weather Roundup
Issued by NWS

Home | Current Version | Previous Version | Text Only | Print | Product List | Glossary On
Versions: 1 2 3 4 5 6 7 8 9 10 11 12 13 14 15 16 17 18 19 20 21 22 23 24 25 26 27 28 29 30 31 32 33 34 35 36 37 38 39 40 41 42 43 44 45 46 47 48 49 50
000
ASUS45 KTFX 162219
RWRMT
MONTANA HOURLY WEATHER ROUNDUP
NATIONAL WEATHER SERVICE GREAT FALLS MT
419 PM MDT WED APR 16 2014

NOTE: "FAIR" INDICATES FEW OR NO CLOUDS BELOW 12000 FEET WITH NO
SIGNIFICANT WEATHER AND/OR OBSTRUCTIONS TO VISIBILITY.

* THESE STATIONS ARE NOT UNDER NWS QUALITY CONTROL. THEY DO NOT
   REPORT WEATHER SUCH AS PRECIPITATION OR FOG.

MTZ001>007-043-162300-
WEST OF THE DIVIDE
CITY           SKY/WX    TMP DP  RH WIND       PRES   REMARKS
KALISPELL      CLOUDY    46  30  54 SE10      29.96S
MISSOULA       CLOUDY    48  28  46 N8        30.01F
BUTTE          CLOUDY    43  18  37 SW9       29.96F
MULLAN PASS    LGT SNOW  32  28  85 VRB3      29.97S
* ESSEX        N/A       43  31  63 N4         N/A
* LINCOLN      N/A       44  25  47 W6G15      N/A
* LOOKOUT PASS N/A       38  31  76 SE10G17    N/A   WCI  31
* PLAINS APT   CLOUDY    52  30  43 SW9       30.01S
* POLSON       N/A       48  28  46 S3G8       N/A
* SEELEY LAKE  N/A       43  27  53 W8G15      N/A
* THOMP F APT  CLOUDY    46  11  24 S9G19      N/A
* YAAK HILL    N/A       51  24  35 SE3        N/A
$$

MTZ008-052>055-162300-
SOUTHWEST MONTANA
CITY           SKY/WX    TMP DP  RH WIND       PRES   REMARKS
BOZEMAN        CLOUDY    46  21  37 NW12      29.96F
DILLON         PTSUNNY   52  12  20 SW20      29.94F
W YELLOWSTONE  N/A       45  16  31 W5G13      N/A
* THREE FORKS  PTSUNNY   52  19  27 W5         N/A
* BOULDER HILL N/A       42  21  43 S9         N/A
* MONIDA PASS  N/A       41   6  23 W13G20     N/A
* RAYNOLDS PAS N/A       43   0  16 N2G14      N/A
* WHITEHALL    N/A       55  17  22 SW9G16     N/A
* WISE RIVER   N/A       44  12  27 NW13G19    N/A
$$

MTZ009>010-012-014-046-048-049-054-162300-
EAST SLOPES AND CENTRAL MONTANA
CITY           SKY/WX    TMP DP  RH WIND       PRES   REMARKS
CUT BANK       CLOUDY    34  30  85 SE5       29.99S WCI  29
GREAT FALLS    LGT RAIN  39  36  89 SW15      29.98R WCI  31
HELENA         CLOUDY    52  21  30 NW10G17   29.94F
MALMSTROM AFB  LGT RAIN  45  32  60 N12G17    29.96S
* CONRAD       PTSUNNY   41  36  82 N/A        N/A
* DEARBORN     N/A       45  34  65 N8         N/A
* EAST GLACIER N/A       29  27  92 SE4        N/A
* MONARCH      N/A       36  23  59 SW11       N/A   WCI  28
* PENDROY      N/A       39  33  79 SE1        N/A
* ROGERS PASS  N/A       40  22  49 SE6G19     N/A   WCI  36
* SAINT MARY   N/A       43  29  58 E3         N/A
* SWEET GRASS  N/A       33  33 100 E4         N/A
* WHITE SULPH  N/A       43  21  42 NW10G15    N/A
$$

MTZ011-013-016-021-035-040-045-047-050-051-162300-
NORTH CENTRAL MONTANA
CITY           SKY/WX    TMP DP  RH WIND       PRES   REMARKS
HAVRE          CLOUDY    43  28  56 SE6       30.03S
LEWISTOWN      CLOUDY    41  30  65 E7        29.98R
* CHINOOK      CLOUDY    45  25  45 E8        30.05S
* FORT BENTON  PTSUNNY   46  28  50 CALM      30.01F
* CHESTER      N/A       37  32  82 E6         N/A   WCI  32
* DENTON       N/A       43  26  51 NW9        N/A
* GEYSER       N/A       37  36  96 S3         N/A
* JUDITH GAP   N/A       38  29  70 N5         N/A   WCI  34
* LOMA         N/A       45  29  54 NE8        N/A
$$

MTZ017>020-022>027-061-062-162300-
NORTHEAST MONTANA
CITY           SKY/WX    TMP DP  RH WIND       PRES   REMARKS
GLASGOW        CLOUDY    36  19  50 SE10      30.13R WCI  29
GLENDIVE       CLOUDY    34  19  54 NE12      30.13S WCI  25
JORDAN         PTSUNNY   41  23  49 E10       30.08R
SIDNEY         CLOUDY    32  19  59 NE10      30.19R WCI  24
WOLF POINT     CLOUDY    36  19  50 E8        30.17R WCI  30
* BEAVER HILL  N/A       30  21  69 NE10       N/A   WCI  21
* CIRCLE       N/A       34  23  64 E4G14      N/A
* LINDSAY DVD  N/A       30  21  69 NE9        N/A   WCI  22
* NAVAJO       N/A       27  17  66 SE9G14     N/A   WCI  18
* SACO         N/A       39  20  46 E11G16     N/A   WCI  32
$$

MTZ028>042-056>058-162300-
SOUTHCENTRAL AND SOUTHEAST MONTANA
CITY           SKY/WX    TMP DP  RH WIND       PRES   REMARKS
BAKER          CLOUDY    36  23  59 E9        30.08R WCI  29
BILLINGS       PTSUNNY   46  30  54 NE6       29.99S
LIVINGSTON     PTSUNNY   48  25  41 SW14G21   29.95F
MILES CITY     CLOUDY    41  25  53 E8        30.06F
* EKALAKA APT  PTSUNNY   43  21  42 NE7       30.00S
* LAUREL APT   PTSUNNY   46  30  54 N7         N/A
* ROUNDUP APT  PTSUNNY   43  27  53 N/A        N/A
* HYSHAM       N/A       42  23  47 E6         N/A
* LAME DEER    N/A       37  25  62 NE11       N/A   WCI  29
* REED POINT   N/A       48  21  34 W17G24     N/A
* ROSCOE HILL  N/A       44   3  18 SE8        N/A
$$

REGIONAL REPORTS...DAKOTAS
CITY           SKY/WX    TMP DP  RH WIND       PRES   REMARKS
WILLISTON      CLOUDY    28  23  81 E14       30.21R WCI  17
DICKINSON      CLOUDY    28  21  75 NE9       30.11R WCI  19
CROSBY         FOG       28  25  89 E15       30.24S WCI  16
TIOGA          N/A       25  25 100 E10G16    30.23R VSB 3    WCI  15
WATFORD CITY   CLOUDY    28  19  69 E8        30.18R WCI  20
BISMARCK       CLOUDY    36  18  48 NE15G21   30.16R WCI  27
GRAND FORKS    SUNNY     41  16  36 NE22G29   30.14R
FARGO          CLOUDY    37  25  62 NE16      30.12R WCI  28
BUFFALO SD     PTSUNNY   34  23  64 NE15      30.01R WCI  24
RAPID CITY     CLOUDY    45  27  49 N17       30.01R
$$

REGIONAL REPORTS...WYOMING/IDAHO/WASHINGTON
CITY           SKY/WX    TMP DP  RH WIND       PRES   REMARKS
GILLETTE       CLOUDY    45  27  49 NW14      29.98R
SHERIDAN       LGT SNOW  36  32  85 SW17G23   30.01R WCI  26
CODY           CLOUDY    45  21  38 NW14      29.95R
YELLOWSTONE LA PTSUNNY   37   9  31 VRB6      29.98F WCI  32
SALMON         PTSUNNY   52  16  24 CALM      29.94F
MULLAN PASS    LGT SNOW  32  28  85 VRB3      29.97S
SAND POINT     N/A       46  41  83 SW7       30.01F
SPOKANE        CLOUDY    50  39  66 SW12G20   30.00F
$$

REGIONAL REPORTS...ALBERTA
CITY           SKY/WX    TMP DP  RH WIND       PRES   REMARKS
CALGARY        CLOUDY    30  27  89 SE12G18   29.98F WCI  20
LETHBRIDGE     LGT SNOW  34  30  85 SE13      30.00F WCI  25
MEDICINE HAT   PTSUNNY   43  25  49 E7        30.05F
EDMONTON       PTSUNNY   34  21  59 SE21      30.05F WCI  22
WATERTON GATE  N/A       34  28  79 NE8        N/A   WCI  27
CARDSTON       N/A       36  34  92 SE10       N/A   WCI  29
MILK RIVER     N/A       34  30  85 E6         N/A   WCI  29
$$

REGIONAL REPORTS...SASKATCHEWAN
CITY           SKY/WX    TMP DP  RH WIND       PRES   REMARKS
SWIFT CURRENT  LGT SNOW  27  23  85 E14G20    30.13S WCI  16
MOOSE JAW      CLOUDY    28  16  61 E16       30.24S WCI  16
REGINA         LGT SNOW  30  18  61 SE10G17   30.25S WCI  21
VAL MARIE      N/A       37  21  52 S8         N/A   WCI  31
ASSINIBOIA     N/A       28  18  66 SE12       N/A   WCI  18
CORONACH       N/A       28  18  66 E10        N/A   WCI  19

$$




USA.gov is the U.S. government's official web portal to all federal, state and local government web resources and services.